GW3736 Weather Reports


time (UTC)temp
F
wind
direction
speed
knots
gust
knots
rain 1hr
in
rain 24hr
in
rain mn
in
humidity
%
barometer
mb
20260502151520 45 334 3.5 7.0 0.00 0.00 0.00 56 1013.8
20260502150515 45 336 3.5 7.8 0.00 0.00 0.00 55 1013.6
20260502130527 43 335 3.5 6.1 0.00 0.00 0.00 65 1014.0
20260502123535 42 0 0.9 3.5 0.00 0.00 0.00 69 1013.8
20260502122530 41 344 2.6 3.5 0.00 0.00 0.00 69 1013.8
20260502121527 40 338 2.6 6.1 0.00 0.00 0.00 71 1013.8
20260502120522 40 339 1.7 5.2 0.00 0.00 0.00 72 1013.8
20260502115518 39 339 2.6 6.1 0.00 0.00 0.00 72 1013.8
20260502114534 39 340 2.6 3.5 0.00 0.00 0.00 72 1013.7
20260502113530 38 342 0.9 1.7 0.00 0.00 0.00 72 1013.7
20260502112546 38 341 0.9 2.6 0.00 0.00 0.00 72 1013.6
20260502111522 38 341 0.9 1.7 0.00 0.00 0.00 72 1013.5
20260502110518 38 341 0.9 2.6 0.00 0.00 0.00 72 1013.4
20260502105534 38 341 0.9 1.7 0.00 0.00 0.00 72 1013.3
20260502104529 38 341 0.9 1.7 0.00 0.00 0.00 71 1013.4
20260502103525 38 341 0.9 1.7 0.00 0.00 0.00 71 1013.3
20260502102541 38 341 1.7 2.6 0.00 0.00 0.00 71 1013.3
20260502100553 38 341 1.7 2.6 0.00 0.00 0.00 71 1013.2
20260502091532 38 341 1.7 2.6 0.00 0.00 0.00 70 1013.2
20260502090528 38 342 0.9 1.7 0.00 0.00 0.00 70 1013.1
20260502071522 38 0.0 0.0 0.00 0.00 0.00 70 1012.7
20260502070518 38 50 0.0 1.7 0.00 0.00 0.00 72 1012.7
20260502065534 39 341 0.9 3.5 0.00 0.00 0.00 72 1012.9
20260502064529 39 341 0.9 0.9 0.00 0.00 0.00 71 1013.1
20260502063525 39 341 0.9 2.6 0.00 0.00 0.00 71 1013.1
20260502062521 39 342 1.7 3.5 0.00 0.00 0.00 70 1013.3
20260502061517 39 343 1.7 3.5 0.00 0.00 0.00 70 1013.3
20260502060533 39 350 0.9 1.7 0.00 0.00 0.00 69 1013.2
20260502055528 39 348 0.0 1.7 0.00 0.00 0.00 70 1013.4
20260502054545 39 348 0.0 0.9 0.00 0.00 0.00 70 1013.5
20260502053541 39 33 0.9 1.7 0.00 0.00 0.00 70 1013.4
20260502052516 39 52 0.9 1.7 0.00 0.00 0.00 69 1013.4
20260502051553 39 52 0.0 1.7 0.00 0.00 0.00 69 1013.4
20260502050529 39 48 0.9 2.6 0.00 0.00 0.00 69 1013.4
20260502045525 39 356 0.9 2.6 0.00 0.00 0.00 68 1013.4
20260502044520 39 53 0.0 2.6 0.00 0.00 0.00 68 1013.2
20260502043516 40 49 0.9 5.2 0.00 0.00 0.00 68 1013.1
20260502042533 40 31 1.7 3.5 0.00 0.00 0.00 67 1013.0
20260502041529 40 32 0.9 1.7 0.00 0.00 0.00 67 1013.1
20260502040525 39 57 0.9 3.5 0.00 0.00 0.00 67 1012.9
20260502035521 39 55 0.9 2.6 0.00 0.00 0.00 66 1013.0
20260502034517 39 57 0.9 1.7 0.00 0.00 0.00 66 1012.9
20260502033533 40 40 0.9 2.6 0.00 0.00 0.00 65 1013.0
20260502032529 40 46 0.9 2.6 0.00 0.00 0.00 64 1013.0
20260502031525 40 337 0.0 2.6 0.00 0.00 0.00 64 1012.9
20260502030521 40 348 1.7 6.1 0.00 0.00 0.00 65 1013.0
20260502025517 40 31 0.9 3.5 0.00 0.00 0.00 64 1012.9
20260502024533 40 24 1.7 3.5 0.00 0.00 0.00 64 1013.0
20260502023529 40 45 0.9 3.5 0.00 0.00 0.00 64 1013.0
20260502022525 41 31 2.6 5.2 0.00 0.00 0.00 64 1012.8
20260502021521 41 29 2.6 6.1 0.00 0.00 0.00 63 1012.7
20260502020517 41 53 1.7 6.1 0.00 0.00 0.00 62 1012.5
20260502015533 41 51 2.6 7.8 0.00 0.00 0.00 63 1012.4
20260502014529 41 57 1.7 6.1 0.00 0.00 0.00 64 1012.4
20260502013524 41 66 1.7 5.2 0.00 0.00 0.00 64 1012.1
20260502012519 41 70 1.7 7.8 0.00 0.00 0.00 64 1012.1
20260502011535 41 65 1.7 5.2 0.00 0.00 0.00 64 1012.1
20260502010530 41 65 2.6 6.1 0.00 0.00 0.00 64 1011.9
20260502005526 41 60 0.9 2.6 0.00 0.00 0.00 65 1011.9
20260502004521 41 57 0.9 5.2 0.00 0.00 0.00 63 1011.8
20260502003517 42 59 0.9 3.5 0.00 0.00 0.00 63 1011.8
20260502002553 42 57 1.7 5.2 0.00 0.00 0.00 60 1011.7
20260502001528 42 63 2.6 7.0 0.00 0.00 0.00 59 1011.7
20260502000524 42 62 1.7 7.0 0.00 0.00 0.00 60 1011.5
20260501235520 43 60 1.7 5.2 0.00 0.00 0.00 61 1011.3
20260501234536 43 63 2.6 7.0 0.00 0.00 0.00 65 1011.1
20260501233532 44 58 1.7 6.1 0.00 0.00 0.00 66 1011.0
20260501232528 44 61 2.6 6.1 0.00 0.00 0.00 67 1011.0
20260501231524 44 54 2.6 6.1 0.00 0.00 0.00 67 1011.0
20260501230520 44 43 1.7 6.1 0.00 0.00 0.00 68 1010.9
20260501225536 45 54 1.7 7.0 0.00 0.00 0.00 69 1010.8
20260501224532 45 60 0.9 5.2 0.00 0.00 0.00 70 1010.7
20260501223527 45 61 2.6 6.1 0.00 0.00 0.00 70 1010.8
20260501222524 45 56 0.9 5.2 0.00 0.00 0.00 69 1010.8
20260501221519 45 58 1.7 7.0 0.00 0.00 0.00 68 1010.7
20260501220515 46 62 1.7 5.2 0.00 0.00 0.00 67 1010.6
20260501215531 46 58 2.6 7.0 0.00 0.00 0.00 67 1010.5
20260501214527 46 57 2.6 7.8 0.00 0.00 0.00 67 1010.5
20260501213523 47 63 2.6 9.6 0.00 0.00 0.00 64 1010.4
20260501212519 49 59 1.7 6.1 0.00 0.00 0.00 58 1010.3
20260501211535 49 351 2.6 5.2 0.00 0.00 0.00 56 1010.0
20260501210531 49 347 1.7 3.5 0.00 0.00 0.00 57 1009.9
20260501205547 49 348 0.9 6.1 0.00 0.00 0.00 57 1009.8
20260501204523 49 17 1.7 5.2 0.00 0.00 0.00 57 1009.8
20260501203519 50 348 3.5 7.8 0.00 0.00 0.00 54 1009.9
20260501202555 50 345 1.7 7.0 0.00 0.00 0.00 53 1009.9
20260501201531 50 17 2.6 6.1 0.00 0.00 0.00 52 1009.9
20260501200525 50 10 0.9 3.5 0.00 0.00 0.00 55 1009.8
20260501195530 50 46 1.7 5.2 0.00 0.00 0.00 55 1009.9
20260501194546 49 354 1.7 5.2 0.00 0.00 0.00 57 1009.9
20260501193541 49 347 2.6 7.0 0.00 0.00 0.00 56 1009.9
20260501192517 49 55 1.7 5.2 0.00 0.00 0.00 55 1009.7
20260501191533 49 34 1.7 3.5 0.00 0.00 0.00 55 1009.7
20260501190529 49 42 1.7 6.1 0.00 0.00 0.00 56 1009.7
20260501185545 48 3 1.7 5.2 0.00 0.00 0.00 57 1009.7
20260501184541 48 343 3.5 7.8 0.00 0.00 0.00 56 1009.6
20260501183517 49 349 1.7 3.5 0.00 0.00 0.00 55 1009.4
20260501182533 50 347 2.6 5.2 0.00 0.00 0.00 54 1009.4
20260501181529 51 55 1.7 3.5 0.00 0.00 0.00 54 1009.2
20260501180525 51 59 0.9 5.2 0.00 0.00 0.00 55 1009.1
20260501175521 50 63 1.7 3.5 0.00 0.00 0.00 56 1009.2
20260501174517 50 62 0.9 1.7 0.00 0.00 0.00 58 1009.2
20260501173533 50 57 0.9 1.7 0.00 0.00 0.00 58 1009.3
20260501172529 50 61 0.9 3.5 0.00 0.00 0.00 60 1009.3
20260501171525 50 64 1.7 2.6 0.00 0.00 0.00 59 1009.5
20260501170521 51 64 1.7 5.2 0.00 0.00 0.00 59 1009.3
20260501165517 50 55 0.9 5.2 0.00 0.00 0.00 60 1009.5
20260501164533 50 57 0.9 2.6 0.00 0.00 0.00 61 1009.3
20260501163549 50 63 1.7 3.5 0.00 0.00 0.00 61 1009.4
20260501162525 51 63 1.7 3.5 0.00 0.00 0.00 60 1009.5
20260501161521 51 61 1.7 6.1 0.00 0.00 0.00 61 1009.7
20260501160517 51 63 3.5 7.0 0.00 0.00 0.00 61 1009.8
20260501155533 51 66 2.6 7.0 0.00 0.00 0.00 64 1009.8